User: anonymous   Login
Location: Unspecified
(0.0000°N, 0.0000°E)
Time: 08:44:39
(UTC+00:00)
Language:

IGS 6A - Orbit

View from above orbital plane
View from above orbital plane
View from above satellite
View from above satellite

Ground track
Ground track

The orbit data is extracted from the following two-line orbital elements,

1 37813U 11050A   18240.97082621 0.00000000  00000-0  00000-0 0    02
2 37813  97.7456 355.6052 0002000 277.9304  82.0694 14.93434662    03
Epoch (UTC): 28 August 2018 23:17:59
Eccentricity: 0.0002000
inclination: 97.7456°
perigee height: 586 km
apogee height: 588 km
right ascension of ascending node: 355.6052°
argument of perigee: 277.9304°
revolutions per day: 14.93434662
mean anomaly at epoch: 82.0694°
orbit number at epoch: 0

The dashed part of the orbit path shows where the satellite is in the earth's shadow,  

DLR